Location: Pedimozza
(42.0500°N, 9.3500°E)
Time: 20:10:33
(UTC+00:00)

Cosmos 1680 Rocket - Pass Details

Date: 19 August 2019
Orbit: 760 x 780 km, 74.1° (Epoch: 14 October)

Event Time Altitude Azimuth Distance (km) Brightness Sun altitude
Rises 19:51:54 0° 344° (NNW) 3,248 7.6 -16.5°
Reaches altitude 10° 19:54:22 10° 350° (N) 2,314 6.6 -16.8°
Maximum altitude 19:59:28 50° 66° (ENE) 970 3.8 -17.6°
Enters shadow 20:01:30 32° 122° (ESE) 1,281 4.1 -17.9°
